Temperature
16 16 16 16 16 16 16 16 16 15 15 15 15 15 15 15 15 15 15 15 15 15 15 15 15 15 15 15 15 15 15 15 15 15 15 15 15 15 15 14 15 15 14
16 16 16 16 16 16 16 16 16 15 15 15 15 15 15 15 15 15 15 15 15 15 15 15 15 15 15 15 15 15 15 15 15 15 15 15 15 15 15 14 14 14 14
16 16 16 16 16 16 16 16 15 15 15 15 15 15 15 15 15 15 15 15 14 15 15 15 14 15 15 15 15 15 15 15 14 14 14 14 15 15 14 14 14 14 14
15 15 15 16 16 15 15 15 15 15 15 15 15 15 15 15 15 15 14 14 14 14 14 14 14 14 15 15 15 15 14 14 14 14 14 14 14 14 14 14 14 14 14
15 15 15 15 15 15 15 15 15 15 15 15 15 15 15 14 14 14 14 14 14 14 14 14 14 14 14 14 14 14 14 14 14 13 13 14 14 14 14 14 14 14 14
15 15 15 15 15 15 15 15 15 15 15 15 15 15 15 14 14 14 14 14 14 14 14 14 14 14 14 14 14 14 14 14 13 13 13 13 13 14 14 14 14 14 14
14 14 15 15 15 15 15 15 15 14 15 15 15 15 15 14 14 14 14 14 14 14 14 14 14 14 14 14 14 14 13 13 13 13 13 13 13 14 14 14 13 13 14
14 14 14 14 14 14 14 14 14 14 14 14 14 14 14 14 14 14 14 14 14 14 14 14 14 14 14 14 14 13 13 13 13 13 13 13 13 13 13 13 13 13 13
14 14 14 14 14 14 14 14 14 14 14 14 14 14 14 14 14 14 14 14 13 13 13 13 13 14 14 13 13 13 13 13 13 13 13 13 13 13 13 13 13 13 13
14 14 14 14 14 14 14 14 14 14 14 14 14 14 14 14 14 14 14 14 14 13 13 13 13 13 13 13 13 13 12 12 13 13 13 13 13 13 13 13 13 13 13
13 13 13 13 13 13 13 13 13 13 13 13 13 14 14 14 14 13 13 14 13 13 13 13 13 13 13 13 13 12 12 12 12 12 12 12 12 12 12 12 12 12 12
13 13 13 13 13 13 13 13 13 13 13 13 13 13 13 13 13 13 13 13 13 13 13 13 13 12 12 12 12 12 12 12 12 12 12 12 12 12 12 12 12 12 12
13 13 13 13 13 13 13 13 13 13 13 13 13 13 13 13 13 13 13 13 13 13 13 12 12 12 12 12 12 12 12 12 12 12 12 12 12 12 12 12 12 12 12
13 13 13 13 13 13 13 13 13 13 13 13 13 13 13 13 13 13 13 13 13 12 12 12 12 12 11 11 11 11 11 11 11 11 11 11 11 11 11 11 11 11 11
13 13 13 13 13 13 12 12 12 13 13 13 12 12 13 12 13 12 12 12 12 12 12 12 12 11 11 11 11 11 11 11 11 11 11 11 11 11 11 11 11 11 11
13 12 12 12 12 12 12 12 12 12 12 12 12 12 12 12 12 12 12 12 12 12 12 11 11 11 11 11 11 11 10 10 11 11 11 11 11 11 11 11 11 11 11
12 12 12 12 12 12 12 12 12 12 12 12 12 12 12 12 12 12 12 12 12 11 11 11 11 11 10 10 10 10 10 10 10 10 10 10 10 11 11 11 10 10 10
12 12 12 12 12 12 12 12 12 12 12 12 12 12 12 12 12 12 12 11 11 11 11 11 10 10 10 10 10 10 10 10 10 10 10 10 10 10 10 10 10 10 10
12 12 12 12 12 11 12 11 12 12 12 12 12 12 12 11 11 11 11 11 11 11 11 10 10 10 10 10 10 10 9 9 10 9 9 9 9 10 10 10 10 10 10
12 12 11 11 11 11 11 11 11 11 11 11 11 11 11 11 11 11 11 11 11 10 10 10 10 10 10 9 9 9 9 9 9 9 9 9 9 9 9 9 9 9 9
11 11 11 11 11 11 11 11 11 11 11 11 11 11 11 11 11 11 10 10 10 10 10 10 10 9 9 9 9 8 8 8 8 8 8 9 9 9 9 9 9 9 9
11 11 11 10 11 11 11 11 11 11 11 11 10 10 10 10 10 10 10 10 10 10 10 9 9 9 9 9 9 8 8 8 8 8 8 8 8 8 8 8 8 8 9
10 10 10 10 10 10 10 10 10 10 10 10 10 10 10 10 10 10 10 10 10 10 10 9 9 9 9 9 9 8 8 7 7 7 7 8 8 8 8 8 8 8 8
10 10 10 10 10 10 10 10 10 10 10 10 10 10 10 10 10 9 9 9 9 9 9 9 9 9 9 9 8 8 8 8 8 7 7 7 7 7 7 7 7 8 8
10 10 10 10 10 10 10 10 9 10 10 10 10 9 9 9 9 9 9 9 9 9 9 9 9 9 8 8 8 8 8 8 8 8 7 7 7 7 7 7 7 7 7
9 9 9 9 9 9 9 9 9 9 9 9 9 9 9 9 9 9 9 9 9 9 8 8 8 8 8 8 8 8 8 8 8 8 7 7 7 7 7 7 7 7 7
Wind_Speed
9 12 14 13 12 11 11 11 11 11 10 10 10 10 10 10 10 10 10 9 9 10 10 11 11 12 12 13 13 13 14 14 14 14 14 14 13 13 13 12 14 13 15
11 14 14 13 12 12 11 11 11 11 10 10 10 10 10 10 10 9 9 9 10 10 10 10 11 11 11 12 12 12 12 12 12 12 13 13 13 13 14 14 14 12 14
12 15 14 13 12 12 12 12 11 11 10 10 10 10 10 10 10 9 9 9 9 10 10 10 10 11 11 11 11 10 10 9 8 8 8 11 12 13 13 13 13 13 13
11 14 14 14 12 12 12 12 11 11 10 10 10 10 10 10 9 9 9 9 9 9 10 10 11 11 11 10 10 9 7 5 4 3 6 10 11 11 12 12 13 13 14
10 12 14 15 13 12 11 11 11 11 10 10 10 10 10 10 10 11 10 10 10 10 11 11 11 11 10 10 9 7 5 3 2 3 9 12 11 11 11 12 12 13 13
8 11 14 14 13 12 11 11 11 11 10 10 9 9 9 9 10 11 11 10 11 11 11 11 10 10 9 9 8 6 3 2 2 6 10 12 10 11 11 11 11 11 12
8 11 13 14 13 12 11 11 11 11 10 10 9 9 8 9 10 10 11 11 11 11 10 10 10 9 8 8 6 4 3 3 4 8 11 11 10 11 11 10 11 11 12
8 9 12 12 12 11 11 11 10 10 10 10 9 9 8 9 9 10 10 10 10 10 9 9 9 8 7 7 6 4 3 4 6 8 10 10 11 11 11 10 11 11 11
7 8 10 11 11 11 11 10 10 10 10 10 9 9 9 9 9 9 10 10 9 9 8 8 8 8 7 6 5 3 3 4 6 7 8 9 10 10 10 10 10 10 10
6 6 7 9 9 9 10 10 10 10 10 9 9 9 9 9 9 9 9 9 9 8 8 8 7 7 7 6 4 2 2 4 6 7 8 9 9 10 10 9 10 9 9
6 6 5 6 7 9 9 10 10 10 10 10 9 9 9 8 9 9 9 9 9 8 7 7 7 6 7 5 4 1 1 3 6 7 8 9 9 9 9 8 8 9 8
6 6 5 5 5 6 7 9 9 9 9 9 8 9 8 8 8 8 10 10 9 8 8 7 6 6 6 4 3 1 0 3 6 7 8 9 8 8 9 8 8 8 8
6 6 6 5 5 4 4 6 6 6 7 8 8 8 8 7 7 7 7 8 8 8 6 6 6 5 4 4 3 2 1 5 7 7 8 9 8 7 8 8 8 8 8
7 6 5 5 5 4 4 4 5 4 5 5 7 8 6 4 4 5 5 6 6 6 6 5 4 4 4 4 5 3 4 6 7 7 7 8 7 6 7 7 7 7 6
7 7 5 5 5 4 4 4 4 4 5 5 6 6 6 4 4 4 4 6 6 6 6 4 3 3 3 3 3 4 5 6 7 7 7 7 6 6 6 6 6 6 6
7 7 6 6 5 5 4 4 3 4 4 6 6 6 6 6 5 4 4 4 4 5 6 5 3 3 2 3 3 4 4 5 7 8 8 7 7 6 6 6 5 5 5
6 6 6 6 6 6 5 5 4 4 5 4 5 6 6 6 5 5 4 4 4 5 5 4 3 4 3 3 3 4 4 5 6 7 8 8 7 6 6 6 5 5 4
6 7 7 6 6 6 5 4 4 5 4 4 5 6 6 6 6 5 4 4 5 6 4 3 3 3 3 3 2 2 3 4 5 6 7 7 7 6 5 5 5 5 4
7 7 7 6 6 6 5 4 4 4 4 4 4 5 6 7 7 5 3 4 6 4 3 3 2 3 3 3 3 2 3 3 3 5 5 6 7 7 7 6 6 5 5
6 6 7 7 7 6 4 4 3 3 3 4 4 4 6 6 7 5 4 4 5 4 3 3 3 3 3 4 3 3 2 2 2 3 3 5 6 6 7 6 6 5 4
6 6 6 7 7 6 5 5 5 4 4 3 4 5 5 6 6 6 4 4 4 4 4 4 3 4 3 3 3 2 2 2 2 2 2 3 4 4 5 6 5 5 4
7 7 7 6 7 7 6 5 4 4 4 4 3 4 6 6 6 6 6 5 5 4 4 5 5 3 3 3 3 3 1 1 1 0 1 1 2 3 3 4 4 5 5
8 8 7 7 7 6 6 5 4 3 3 3 4 4 4 6 6 6 6 5 5 5 5 5 6 5 4 3 2 3 3 3 1 1 1 1 1 1 1 3 3 4 5
8 7 7 7 7 6 7 6 7 6 5 5 5 4 5 6 6 7 6 6 6 5 5 6 5 4 6 5 2 1 1 2 3 2 1 2 2 2 2 2 3 4 5
7 7 6 7 7 6 7 7 7 5 4 4 5 6 5 4 5 6 7 6 6 5 6 5 5 5 5 5 4 2 1 1 1 2 2 2 2 2 2 3 4 4 5
6 7 7 7 7 7 7 7 7 7 6 6 5 6 5 4 4 5 6 6 6 5 6 6 6 6 5 5 4 3 3 2 2 2 2 2 2 3 3 3 3 5 6
Wind_Direction
120 129 138 137 133 131 130 128 127 124 122 121 124 123 119 116 115 111 109 109 107 105 104 101 97 93 89 87 84 82 82 83 84 82 79 78 80 79 75 74 75 70 72
124 131 137 136 137 134 133 131 128 125 123 121 122 125 124 122 121 118 114 115 113 107 104 104 103 98 94 91 89 87 87 88 92 92 88 82 78 76 74 74 78 78 76
125 131 137 136 138 138 136 135 132 130 126 121 121 123 128 127 125 124 119 114 111 106 102 105 105 101 97 95 92 91 91 94 97 103 101 95 85 79 80 80 80 80 78
125 131 139 139 139 141 140 138 136 134 130 126 123 123 126 128 127 126 123 117 110 107 104 102 101 99 99 97 95 94 95 95 89 89 103 100 93 86 84 82 82 81 78
122 129 135 141 141 140 142 142 140 138 135 130 126 123 125 126 124 120 116 112 107 104 104 101 99 99 100 102 101 101 97 77 34 66 83 89 93 94 90 86 83 81 78
121 125 135 142 144 142 139 143 145 144 141 137 133 130 130 129 126 119 114 111 107 104 103 101 102 100 101 103 103 103 93 41 33 71 86 89 95 100 95 91 88 85 83
122 125 139 143 146 145 142 142 146 146 145 144 142 140 136 132 128 123 119 114 113 110 107 104 102 100 101 102 100 93 58 17 70 72 82 89 99 101 98 97 94 91 87
125 126 138 145 146 146 147 146 149 150 149 148 147 146 141 135 133 128 124 122 119 116 114 110 105 105 105 101 97 85 36 26 81 83 85 92 101 98 97 98 96 94 90
124 130 139 147 148 150 152 151 148 152 153 153 150 146 141 137 134 132 131 129 126 123 120 118 114 110 108 105 98 82 35 43 57 79 90 94 102 99 97 95 95 95 91
131 136 141 148 150 151 152 156 157 156 157 158 156 150 145 141 136 133 132 132 132 130 126 124 123 119 113 110 105 87 43 45 77 80 91 98 103 102 99 96 94 95 94
145 144 144 146 148 153 159 164 163 162 167 165 162 157 150 145 144 140 141 138 136 135 133 132 131 125 118 118 120 115 72 90 91 89 95 103 102 103 101 100 98 96 96
162 158 155 150 145 155 164 158 166 169 169 169 163 162 163 157 155 151 149 147 144 140 140 141 139 135 132 139 153 179 168 101 92 90 97 104 105 107 107 104 100 98 96
170 167 158 149 146 148 144 152 157 161 163 168 169 169 167 158 145 139 141 144 145 148 144 145 143 144 142 142 145 166 97 88 93 95 103 110 111 113 112 109 106 103 97
171 169 160 148 149 152 151 156 151 145 149 155 166 165 159 145 138 141 139 151 150 154 145 148 156 153 152 153 153 152 105 93 95 94 102 115 118 120 117 117 115 111 106
171 169 165 153 154 156 160 163 149 143 147 148 152 156 151 143 150 147 144 146 155 156 151 157 158 149 146 150 150 132 116 111 111 105 102 109 113 120 123 121 121 120 115
175 169 166 163 165 162 165 160 154 143 140 140 140 150 152 147 146 144 143 144 145 149 152 155 146 129 118 108 99 100 105 116 119 120 113 106 106 112 118 121 123 120 118
181 170 167 168 164 166 165 158 155 147 142 136 143 153 147 146 147 145 143 137 138 146 142 134 128 117 103 92 85 80 81 94 108 115 119 116 112 110 115 118 120 117 117
176 172 171 173 164 163 159 159 153 146 143 140 149 156 160 155 150 137 141 146 145 145 139 128 130 116 110 99 82 71 75 84 100 106 110 118 119 114 116 123 118 116 111
173 166 167 165 164 161 158 157 151 145 149 150 151 157 166 163 156 141 140 140 142 138 136 143 131 131 124 111 96 75 64 65 85 100 105 114 122 121 117 119 121 119 118
170 167 166 165 163 159 155 151 154 152 153 153 156 162 169 167 159 145 139 136 137 141 147 145 145 134 131 125 106 76 60 66 73 90 112 115 116 120 127 129 128 126 124
169 168 167 167 166 161 160 163 167 171 168 166 161 164 169 167 164 153 147 145 144 155 161 152 139 135 131 122 103 79 30 36 73 86 94 103 101 108 123 132 137 134 132
178 175 170 170 169 167 169 168 164 159 167 174 161 164 170 168 171 167 156 162 160 161 164 160 145 145 154 148 138 133 147 334 326 75 95 114 116 120 125 138 137 138 142
180 180 179 174 170 166 162 157 151 144 149 163 169 173 172 172 175 172 167 165 168 167 171 172 164 163 170 183 169 152 157 189 207 237 210 168 164 150 167 162 153 149 148
177 173 173 170 166 165 161 166 167 172 178 180 170 170 170 173 177 177 174 171 173 171 171 178 173 171 170 182 206 223 162 147 158 184 238 214 199 191 197 190 180 171 165
164 163 171 166 164 165 168 173 175 174 177 165 161 164 169 173 176 177 177 175 176 177 179 177 175 177 179 182 184 189 203 109 130 151 202 221 239 228 207 193 188 186 185
153 158 165 163 167 170 170 174 180 176 173 170 172 172 174 174 177 178 180 179 177 178 184 185 184 184 185 184 188 183 177 173 190 169 185 191 217 238 227 205 193 192 195
Height
1506 1507 1509 1511 1513 1515 1517 1519 1520 1522 1523 1525 1526 1527 1528 1529 1531 1532 1533 1534 1536 1537 1538 1539 1540 1541 1542 1543 1543 1544 1545 1546 1546 1547 1548 1548 1549 1549 1550 1551 1551 1551 1552
1505 1507 1509 1511 1513 1515 1517 1519 1521 1522 1524 1525 1526 1528 1529 1530 1531 1533 1534 1535 1537 1538 1539 1540 1541 1542 1543 1543 1544 1545 1546 1547 1548 1548 1549 1550 1550 1551 1552 1552 1553 1553 1553
1504 1506 1509 1511 1513 1515 1517 1519 1521 1522 1524 1525 1527 1528 1529 1531 1532 1534 1535 1536 1537 1539 1540 1541 1542 1542 1543 1544 1545 1546 1548 1549 1549 1550 1551 1551 1552 1553 1553 1554 1554 1554 1555
1504 1506 1508 1511 1513 1515 1517 1519 1521 1522 1524 1525 1527 1528 1530 1531 1533 1534 1536 1537 1538 1539 1540 1541 1542 1543 1544 1545 1546 1547 1549 1550 1551 1551 1552 1552 1553 1554 1554 1555 1555 1555 1556
1504 1506 1508 1510 1513 1515 1517 1519 1521 1522 1524 1526 1527 1529 1530 1532 1533 1535 1536 1537 1539 1540 1541 1542 1543 1544 1545 1546 1547 1548 1550 1551 1552 1553 1553 1554 1554 1555 1555 1556 1556 1557 1557
1504 1506 1508 1510 1512 1514 1517 1519 1521 1522 1524 1526 1527 1529 1530 1532 1533 1535 1536 1538 1539 1540 1541 1542 1544 1545 1545 1547 1548 1549 1551 1552 1553 1553 1554 1555 1555 1556 1556 1557 1557 1558 1558
1503 1505 1507 1509 1512 1514 1516 1518 1520 1522 1524 1525 1527 1529 1531 1532 1534 1535 1537 1538 1539 1541 1542 1543 1544 1545 1546 1547 1549 1550 1551 1552 1553 1554 1555 1555 1556 1557 1557 1558 1558 1559 1559
1503 1504 1507 1509 1511 1513 1515 1517 1519 1521 1523 1525 1527 1529 1531 1532 1534 1535 1537 1538 1539 1541 1542 1543 1544 1545 1547 1548 1549 1550 1552 1553 1554 1554 1555 1556 1557 1557 1558 1559 1559 1559 1560
1502 1504 1506 1508 1510 1512 1514 1516 1518 1520 1523 1525 1527 1528 1530 1532 1534 1535 1537 1538 1539 1541 1542 1543 1544 1546 1547 1548 1550 1551 1552 1553 1554 1555 1556 1557 1557 1558 1559 1559 1560 1560 1560
1502 1503 1505 1507 1509 1511 1513 1515 1517 1519 1522 1524 1526 1528 1530 1532 1533 1535 1536 1538 1539 1540 1542 1543 1544 1546 1547 1548 1550 1551 1552 1553 1554 1555 1556 1557 1558 1558 1559 1559 1560 1560 1561
1501 1502 1504 1506 1508 1510 1512 1514 1516 1518 1521 1523 1525 1527 1529 1531 1533 1534 1536 1537 1539 1540 1541 1543 1544 1545 1547 1549 1550 1552 1553 1553 1554 1555 1556 1557 1558 1558 1559 1559 1560 1560 1560
1499 1501 1503 1505 1506 1509 1511 1512 1515 1517 1519 1522 1524 1526 1528 1530 1532 1533 1535 1537 1538 1539 1541 1542 1544 1545 1546 1548 1550 1551 1552 1553 1554 1555 1555 1556 1557 1558 1558 1559 1559 1560 1560
1497 1499 1501 1503 1505 1507 1509 1511 1513 1515 1518 1520 1523 1525 1527 1529 1531 1532 1534 1535 1537 1538 1540 1541 1543 1544 1546 1548 1549 1551 1552 1552 1553 1554 1555 1556 1557 1557 1558 1558 1559 1559 1560
1495 1497 1499 1501 1503 1505 1507 1509 1512 1514 1516 1519 1521 1523 1525 1527 1529 1531 1532 1534 1536 1537 1539 1540 1542 1543 1545 1547 1549 1550 1551 1552 1552 1553 1554 1555 1556 1556 1557 1557 1558 1558 1559
1492 1494 1497 1498 1500 1503 1505 1507 1509 1512 1514 1517 1519 1521 1523 1525 1527 1529 1531 1532 1534 1536 1538 1539 1541 1543 1545 1546 1548 1549 1550 1551 1552 1553 1553 1554 1555 1555 1556 1556 1557 1557 1558
1489 1491 1494 1496 1498 1500 1502 1504 1507 1510 1512 1514 1517 1519 1521 1524 1526 1528 1529 1531 1533 1535 1536 1538 1540 1542 1544 1545 1546 1548 1549 1550 1551 1552 1552 1553 1554 1554 1555 1555 1556 1556 1557
1486 1488 1490 1493 1495 1497 1499 1502 1505 1507 1510 1512 1514 1517 1519 1521 1523 1525 1528 1529 1531 1533 1535 1537 1539 1540 1542 1544 1545 1546 1548 1548 1549 1550 1551 1552 1552 1553 1554 1554 1555 1555 1556
1482 1484 1487 1489 1491 1494 1496 1499 1502 1504 1507 1509 1512 1514 1517 1519 1521 1523 1525 1527 1529 1531 1533 1535 1537 1538 1540 1542 1543 1545 1546 1547 1548 1549 1549 1550 1551 1551 1552 1553 1554 1554 1555
1478 1480 1483 1485 1488 1490 1493 1496 1499 1501 1504 1506 1509 1511 1514 1516 1518 1521 1522 1524 1527 1529 1530 1533 1535 1537 1538 1540 1541 1543 1544 1545 1546 1547 1548 1549 1549 1550 1551 1552 1552 1553 1553
1474 1477 1479 1482 1484 1487 1490 1493 1495 1498 1501 1504 1506 1509 1511 1514 1516 1518 1520 1522 1524 1526 1528 1530 1532 1534 1536 1537 1539 1541 1542 1544 1545 1545 1546 1547 1548 1548 1549 1550 1550 1551 1551
1470 1473 1475 1477 1480 1483 1486 1489 1491 1494 1497 1500 1503 1506 1508 1511 1513 1515 1517 1519 1521 1523 1525 1527 1530 1531 1533 1535 1537 1539 1540 1542 1543 1544 1544 1545 1546 1546 1547 1548 1548 1549 1549
1466 1468 1471 1474 1476 1479 1482 1485 1488 1491 1494 1497 1500 1502 1505 1507 1510 1511 1514 1516 1518 1520 1522 1524 1526 1528 1530 1532 1534 1535 1537 1540 1540 1541 1542 1543 1543 1544 1545 1546 1546 1547 1547
1461 1464 1466 1470 1473 1475 1478 1482 1485 1488 1491 1493 1496 1499 1501 1504 1506 1508 1510 1513 1515 1517 1519 1521 1523 1525 1526 1529 1531 1532 1533 1534 1536 1538 1538 1539 1540 1541 1542 1543 1544 1544 1545
1457 1460 1463 1466 1469 1472 1475 1478 1480 1483 1485 1488 1492 1495 1498 1500 1502 1505 1507 1509 1511 1513 1515 1518 1520 1522 1523 1525 1527 1528 1530 1531 1533 1533 1535 1536 1537 1538 1539 1540 1541 1541 1542
1453 1456 1459 1462 1465 1468 1471 1474 1477 1479 1482 1485 1488 1491 1493 1496 1498 1501 1503 1505 1507 1509 1512 1514 1516 1518 1519 1521 1523 1525 1526 1528 1529 1530 1530 1532 1533 1535 1536 1537 1537 1538 1538
1450 1453 1456 1459 1461 1465 1467 1470 1473 1475 1479 1481 1484 1487 1489 1492 1494 1497 1499 1501 1503 1505 1508 1510 1512 1514 1516 1518 1519 1521 1523 1524 1524 1526 1527 1528 1529 1531 1532 1533 1533 1534 1535